Find Starlink 32900

NORAD ID: 63093 Int'l Des: 2025-037 Owner: SPXS Country: US Constellation: starlink operational
LEOCIRCULAR

現在のビュー

3D地球を読み込み中...

About Starlink 32900

Starlink 32900 (NORAD 63093) is a starlink constellation satellite (v2 mini) launched Feb 23, 2025 by SPXS of US. It operates in LEO, CIRCULAR orbit with a mass of 730.00 kg.

Starlink 32900について

説明を読み込み中...

次回通過

Passes for default location (London). Set your location on the main map for personalized predictions.

高度履歴

Loading altitude history...

軌道要素

1 63093U 25037S 26167.56531035 .00005199 00000-0 44321-3 0 9999
2 63093 70.0015 105.1143 0003049 268.6244 91.4566 14.98326979 73277
Epoch: Jun 16, 2026 • Age: 9 hours

現在のステータス

高度 576.9 km
速度 7.57 km/s
衛星直下点 -14.64°S, 47.69°E
打ち上げ日 Feb 23, 2025
運用期間 1.3 years
タイプ internet

技術仕様

分類 Payload
質量 730.00 kg
乾燥質量 700.00 kg
総質量 730.00 kg
長さ 0.30 m
直径 4.10 m
スパン 29.00 m
形状 Box + pan
製造者 SPXS
バスタイプ Starlink V2M
フェーズステータス In Orbit
所有者/国 SPXS/US

Most Searched